sat.trackr.live / text

‹ back to catalog

STARLINK-32772

NORAD 63033 · 2025-034E

PAYLOAD ACTIVE UNKNOWN

§ Identity

Operator
Country
US
Launch date
2025-02-18
Launch site
AFETR
Launch vehicle
Mass (kg)
RCS (m²)

Purposes: comms

External: N2YO · Heavens-Above · Gunter

§ Orbital elements

Epoch: 2026-05-24T18:04:17.331168Z

Period
94.11 min
Inclination
53.1582°
Eccentricity
0.0001034
Mean motion
15.30193949 rev/d
Perigee alt
474.5 km
Apogee alt
475.9 km
Semi-major
6,853.4 km
B*
8.4996e-4
RAAN
264.7384°
Arg perigee
73.2175°
Mean anomaly
286.8939°
Rev number
7,073

§ Raw data

STARLINK-327721 63033U 25034E   26144.75297837  .00024894  00000+0  84996-3 0  99992 63033  53.1582 264.7384 0001034  73.2175 286.8939 15.30193949 70734

JSON: /api/v1/satellites/63033 · /tle

For live sub-satellite position, see the globe view (requires WebGL).

§ Visibility from observer

Set your observer location to see the next 7 days of passes ≥ 10°. The values pass through the URL so the page stays shareable.

No JS? Fill the form by hand. The geolocation button needs JavaScript.